User: anonymous   Login
Location: Oshawa
(43.9000°N, 78.8670°W)
Time: 14:21:40
(UTC-04:00)
Language:

SPOT 5 - Orbit

View from above orbital plane
View from above orbital plane
View from above satellite
View from above satellite

Ground track
Ground track

The orbit data is extracted from the following two-line orbital elements,

1 27421U 02021A   18115.54062742  .00000049  00000-0  21953-4 0  9994
2 27421  98.3625 183.4517 0136568  91.6846 269.9998 14.51926490830995
Epoch (UTC): 25 April 2018 12:58:30
Eccentricity: 0.0136568
inclination: 98.3625°
perigee height: 622 km
apogee height: 816 km
right ascension of ascending node: 183.4517°
argument of perigee: 91.6846°
revolutions per day: 14.51926490
mean anomaly at epoch: 269.9998°
orbit number at epoch: 83099

The dashed part of the orbit path shows where the satellite is in the earth's shadow,  

DLR